Montana Department of Transportation

Main Content

Accidents and Incidents Report

Hourly Weather Roundup

ASUS45 KTFX 191419
RWRMT 
MONTANA HOURLY WEATHER ROUNDUP
NATIONAL WEATHER SERVICE GREAT FALLS MT
819 AM MDT SAT APR 19 2014

NOTE: "FAIR" INDICATES FEW OR NO CLOUDS BELOW 12000 FEET WITH NO
SIGNIFICANT WEATHER AND/OR OBSTRUCTIONS TO VISIBILITY.

* THESE STATIONS ARE NOT UNDER NWS QUALITY CONTROL. THEY DO NOT
   REPORT WEATHER SUCH AS PRECIPITATION OR FOG.

MTZ001.007-043-191500-
WEST OF THE DIVIDE
CITY           SKY/WX    TMP DP  RH WIND       PRES   REMARKS
KALISPELL      SUNNY     30  27  89 CALM      29.99R 
MISSOULA       SUNNY     28  23  81 CALM      30.04R 
BUTTE          SUNNY     23  18  81 S3        30.00S 
MULLAN PASS    SUNNY     27  19  72 S8        29.90S WCI  19 
* ESSEX        N/A       25  24  96 N1         N/A   
* LINCOLN      N/A       24  19  81 NW2        N/A   
* LOOKOUT PASS N/A       22  21  96 SE2        N/A   
* PLAINS APT   SUNNY     25  19  78 CALM      30.02S 
* POLSON       N/A       29  21  72 N/A        N/A   
* SEELEY LAKE  N/A       19  17  92 N/A        N/A   
* THOMP F APT  SUNNY     29  11  47 N/A        N/A   
--------------------------------

MTZ008-052.055-191500-
SOUTHWEST MONTANA
CITY           SKY/WX    TMP DP  RH WIND       PRES   REMARKS
BOZEMAN        SUNNY     32  21  64 SE8       30.01R WCI  25 
DILLON         PTCLDY    34  14  44 SW14      30.00S WCI  24 
W YELLOWSTONE  N/A       23  22  96 N/A        N/A   
* THREE FORKS  SUNNY     25  14  63 N/A        N/A   
* BOULDER HILL N/A       30   4  33 SW8        N/A   WCI  22 
* MONIDA PASS  N/A       26  14  60 W2         N/A   
* RAYNOLDS PAS N/A       24  15  68 SW5        N/A   WCI  18 
* WHITEHALL    N/A       27   9  46 NW5G10     N/A   WCI  21 
* WISE RIVER   N/A       20  15  81 NW4        N/A   
--------------------------------

MTZ009.010-012-014-046-048-049-054-191500-
EAST SLOPES AND CENTRAL MONTANA
CITY           SKY/WX    TMP DP  RH WIND       PRES   REMARKS
CUT BANK       SUNNY     37  23  57 NW7       29.90R WCI  32 
GREAT FALLS    SUNNY     39  18  43 SW12      29.93R WCI  32 
HELENA         SUNNY     32  18  56 CALM      29.99R 
MALMSTROM AFB  SUNNY     37  18  46 S7        29.91S WCI  32 
* CONRAD       SUNNY     30  25  82 N/A        N/A   
* DEARBORN     N/A       42  13  31 S10G15     N/A   
* EAST GLACIER N/A       34  19  54 W16        N/A   WCI  24 
* MONARCH      N/A       36   5  27 SE2        N/A   
* PENDROY      N/A       36  19  50 W4         N/A   
* ROGERS PASS  N/A       31  14  49 SE9G17     N/A   WCI  23 
* SAINT MARY   N/A       35  22  59 S6G15      N/A   WCI  30 
* SWEET GRASS  N/A       33  29  85 SW7        N/A   WCI  27 
* WHITE SULPH  N/A       34  15  46 SE2        N/A   
--------------------------------

MTZ011-013-016-021-035-040-045-047-050-051-191500-
NORTH CENTRAL MONTANA
CITY           SKY/WX    TMP DP  RH WIND       PRES   REMARKS
HAVRE          SUNNY     37  30  76 SW9       29.94R WCI  30 
LEWISTOWN      SUNNY     39  14  36 SW10      29.96R WCI  32 
* CHINOOK      SUNNY     37  32  82 W10       29.94S WCI  30 
* FORT BENTON  SUNNY     39  19  45 SW7       29.96R WCI  34 
* MALTA APT    PTCLDY    39  27  62 W18G23    29.91R WCI  30 
* CHESTER      N/A       31  29  92 S2         N/A   
* DENTON       N/A       41  20  43 S6         N/A   
* GEYSER       N/A       39  15  37 SW8        N/A   WCI  33 
* JUDITH GAP   N/A       37  12  36 NE5        N/A   WCI  33 
* LOMA         N/A       37  21  52 W4         N/A   
--------------------------------

MTZ017.020-022.027-061-062-191500-
NORTHEAST MONTANA
CITY           SKY/WX    TMP DP  RH WIND       PRES   REMARKS
GLASGOW        CLOUDY    39  34  82 W14G25    29.92R WCI  31 
GLENDIVE       SUNNY     45  30  56 W26G33    29.92R 
JORDAN         PTCLDY    39  27  62 W9        29.93R WCI  33 
SIDNEY         PTSUNNY   43  36  76 W22       29.89R 
WOLF POINT     PTCLDY    43  34  71 W20G28    29.90R 
* BEAVER HILL  N/A       42  26  53 W18G30     N/A   
* CIRCLE       N/A       39  34  82 W13G18     N/A   WCI  31 
* LINDSAY DVD  N/A       38  26  62 W24G29     N/A   WCI  27 
* NAVAJO       N/A       37  34  89 NW28G37    N/A   WCI  25 
* SACO         N/A       39  33  79 W16        N/A   WCI  30 
* SCOBEY APT   PTCLDY    37  30  76 W18G26    29.83R WCI  27 
--------------------------------

MTZ028.042-056.058-191500-
SOUTHCENTRAL AND SOUTHEAST MONTANA
CITY           SKY/WX    TMP DP  RH WIND       PRES   REMARKS
BAKER          SUNNY     45  25  45 W18G26    29.93R 
BILLINGS       PTCLDY    43  16  34 W7        30.00R 
LIVINGSTON     SUNNY     39  16  39 NW5       29.99R WCI  35 
MILES CITY     SUNNY     43  27  53 W12       29.97R 
* EKALAKA APT  SUNNY     43  18  37 SW13      29.95R 
* LAUREL APT   SUNNY     39  12  33 N/A        N/A   
* ROUNDUP APT  SUNNY     39  14  36 SW5        N/A   WCI  35 
* HYSHAM       N/A       41  14  33 W4         N/A   
* LAME DEER    N/A       38  15  39 W6         N/A   WCI  33 
* REED POINT   N/A       37  16  42 SE1        N/A   
* ROSCOE HILL  N/A       38  14  37 SE8        N/A   WCI  32 
--------------------------------

REGIONAL REPORTS...DAKOTAS
CITY           SKY/WX    TMP DP  RH WIND       PRES   REMARKS
WILLISTON      PTSUNNY   41  36  82 W17G28    29.84R 
DICKINSON      SUNNY     46  25  44 W24       29.86R 
CROSBY         PTSUNNY   41  41 100 W20G29    29.76R 
TIOGA          CLOUDY    39  39 100 W20G28    29.79R WCI  29 
WATFORD CITY   CLOUDY    39  36  89 W14G28    29.82R WCI  31 
BISMARCK       SUNNY     46  30  54 W9        29.88R 
GRAND FORKS    PTCLDY    48  39  71 SW12      29.76R 
FARGO          CLOUDY    52  39  61 S15       29.83R 
BUFFALO SD     PTCLDY    43  25  49 SW12      29.91R 
RAPID CITY     PTCLDY    50  16  26 W7        30.02R 
--------------------------------

REGIONAL REPORTS...WYOMING/IDAHO/WASHINGTON
CITY           SKY/WX    TMP DP  RH WIND       PRES   REMARKS
GILLETTE       SUNNY     43  30  60 SW12      30.03R 
SHERIDAN       SUNNY     43  30  60 CALM      30.03R 
CODY           PTCLDY    39  27  62 SE3       30.00R 
YELLOWSTONE LA PTCLDY    25  18  75 CALM      30.07R 
SALMON         SUNNY     28  19  69 CALM      30.06R 
MULLAN PASS    SUNNY     27  19  72 S8        29.90S WCI  19 
SAND POINT     SUNNY     34  34 100 NE8       29.97S WCI  27 
SPOKANE        SUNNY     36  28  73 E5        29.91F WCI  32 
--------------------------------

REGIONAL REPORTS...ALBERTA
CITY           SKY/WX    TMP DP  RH WIND       PRES   REMARKS
CALGARY        PTCLDY    32  28  85 S8        29.83S WCI  25 
LETHBRIDGE     PTSUNNY   32  28  85 SW5       29.87S WCI  27 
MEDICINE HAT   CLOUDY    36  32  85 W2        29.92S 
EDMONTON       SUNNY     28  27  96 S2        29.81R 
WATERTON GATE  N/A       39  23  53 SW10       N/A   WCI  32 
CARDSTON       N/A       37  27  67 SW3        N/A   
MILK RIVER     N/A       30  27  89 NW3        N/A   
--------------------------------

REGIONAL REPORTS...SASKATCHEWAN
CITY           SKY/WX    TMP DP  RH WIND       PRES   REMARKS
SWIFT CURRENT  FOG       32  32 100 NW12G18   29.84R VSB 3/4  WCI  23 
REGINA         CLOUDY    32  30  92 NW22G33   29.75R WCI  19 
VAL MARIE      N/A       37  32  82 W12        N/A   WCI  29 
ASSINIBOIA     N/A       34  32  92 NW20G26    N/A   WCI  23 
CORONACH       N/A       36  32  85 W23G30     N/A   WCI  24 

--------------------------------